Location: Newark
(20.1200°S, 168.9600°E)
Time: 19:42:32
(UTC+00:00)

LightSail 2 - Pass Details

Date: 27 November 2019
Orbit: 695 x 731 km, 24.0° (Epoch: 05 December)

Event Time Altitude Azimuth Distance (km) Brightness Sun altitude
Exits shadow 17:07:12 - 342° (NNW) 2,614 7.6 -11.0°
Reaches altitude 10° 17:09:13 10° 359° (N) 2,181 7.4 -10.6°
Maximum altitude 17:11:38 13° 27° (NNE) 1,971 7.4 -10.1°
Drops below altitude 10° 17:14:04 10° 55° (NE) 2,197 8.1 -9.6°
Sets 17:17:48 0° 81° (E) 3,129 9.5 -8.8°
